Weather History for KGUY - December, 2012

Change the Weather History Date:

Sunday, December 23, 2012

  Actual Average Record
Temperature  
Mean Temperature 37 °F 34 °F  
Max Temperature 56 °F 47 °F 71 °F (2005)
Min Temperature 18 °F 21 °F -4 °F (2004)
Degree Days  
Heating Degree Days 28 31  
Month to date heating degree days 535 677  
Since 1 July heating degree days 1268 1568  
Cooling Degree Days 0 0  
Month to date cooling degree days 0 0  
Year to date cooling degree days 1917 1482  
Moisture  
Dew Point 15 °F    
Average Humidity 46    
Maximum Humidity 73    
Minimum Humidity 19    
Precipitation  
Precipitation 0.00 in 0.02 in 0.21 in (2002)
Month to date precipitation 0.70 0.49  
Year to date precipitation 11.49 19.15  
Snow  
Snow 0.00 in - - ()
Month to date snowfall 0.2  
Since 1 July snowfall 0.2  
Snow Depth 0.00 in    
Sea Level Pressure  
Sea Level Pressure 29.95 in    
Wind  
Wind Speed 5 mph (WNW)    
Max Wind Speed 20 mph    
Max Gust Speed 25 mph    
Visibility 10 miles    
Events      
T = Trace of Precipitation, MM = Missing Value Source: NWS Daily Summary

Daily Weather History Graph

Daily Weather History Graph

Search for Another Location

Airport or City:

Trip Planner

Search our weather history database for the weather conditions in past years. The results will help you decide how hot, cold, wet, or windy it might be!

Date:

Astronomy

Dec. 23, 2012 Rise Set
Actual Time 7:55 AM CST 5:35 PM CST
Civil Twilight 7:26 AM CST 6:03 PM CST
Nautical Twilight 6:54 AM CST 6:36 PM CST
Astronomical Twilight 6:22 AM CST 7:07 PM CST
Moon 2:24 PM CST (12/23) 3:43 AM CST (12/23)
Length of Visible Light 10h 37m
Length of Day
9h 39m
Waxing Gibbous, 82% of the Moon is Illuminated
Dec 23
Waxing Gibbous
Dec 28
Full
Jan 4
Last Quarter
Jan 11
New
Jan 18
First Quarter

Hourly Weather History & Observations

Time (CST) Temp. Windchill Dew Point Humidity Pressure Visibility Wind Dir Wind Speed Gust Speed Precip Events Conditions
12:53 AM 32.0 °F 25.6 °F 19.9 °F 61% 29.95 in 10.0 mi NNW 6.9 mph - N/A   Clear
1:53 AM 28.9 °F - 17.1 °F 61% 29.94 in 10.0 mi Calm Calm - N/A   Clear
2:53 AM 26.1 °F 20.5 °F 16.0 °F 66% 29.93 in 10.0 mi West 4.6 mph - N/A   Clear
3:53 AM 26.1 °F 20.5 °F 15.1 °F 63% 29.92 in 10.0 mi West 4.6 mph - N/A   Clear
4:53 AM 21.9 °F 17.2 °F 14.0 °F 72% 29.93 in 10.0 mi NNW 3.5 mph - N/A   Clear
5:53 AM 19.9 °F - 12.9 °F 74% 29.95 in 10.0 mi Calm Calm - N/A   Clear
6:53 AM 19.9 °F - 12.9 °F 74% 29.97 in 10.0 mi Calm Calm - N/A   Clear
7:53 AM 19.0 °F - 12.0 °F 74% 29.98 in 10.0 mi Calm Calm - N/A   Clear
8:53 AM 24.1 °F - 16.0 °F 71% 29.96 in 10.0 mi Calm Calm - N/A   Clear
9:53 AM 32.0 °F - 17.1 °F 54% 29.94 in 10.0 mi Calm Calm - N/A   Clear
10:53 AM 37.0 °F - 18.0 °F 46% 29.94 in 10.0 mi Calm Calm - N/A   Clear
12:53 PM 46.0 °F 41.9 °F 18.0 °F 33% 29.88 in 10.0 mi SSW 8.1 mph - N/A   Clear
1:53 PM 50.0 °F - 18.0 °F 28% 29.84 in 10.0 mi SW 3.5 mph - N/A   Clear
2:53 PM 52.0 °F - 16.0 °F 24% 29.84 in 10.0 mi NW 3.5 mph - N/A   Clear
3:53 PM 55.9 °F - 15.1 °F 20% 29.85 in 10.0 mi NNW 13.8 mph - N/A   Clear
4:53 PM 52.0 °F - 10.0 °F 19% 29.91 in 10.0 mi North 16.1 mph 24.2 mph N/A   Clear
5:53 PM 43.0 °F 36.8 °F 14.0 °F 31% 29.97 in 10.0 mi North 11.5 mph - N/A   Clear
6:53 PM 37.0 °F 30.4 °F 17.1 °F 44% 30.00 in 10.0 mi North 9.2 mph - N/A   Clear
7:53 PM 32.0 °F 28.7 °F 18.0 °F 56% 30.02 in 10.0 mi NNW 3.5 mph - N/A   Clear
8:53 PM 30.9 °F 27.5 °F 16.0 °F 54% 30.03 in 10.0 mi SW 3.5 mph - N/A   Clear
9:53 PM 35.1 °F 27.4 °F 14.0 °F 42% 30.00 in 10.0 mi WNW 10.4 mph - N/A   Clear
10:53 PM 30.0 °F 26.5 °F 14.0 °F 51% 30.00 in 10.0 mi West 3.5 mph - N/A   Clear
11:53 PM 30.9 °F 21.7 °F 12.9 °F 47% 29.99 in 10.0 mi WNW 11.5 mph - N/A   Clear